Location: Complexul Astronomic Baia Mare
(47.6577°N, 23.5639°E)
Time: 01:49:51
(UTC+03:00)

ISS - Pass Details

Date: 01 June 2017
Orbit: 400 x 408 km, 51.6° (Epoch: 26 July)

Event Time Altitude Azimuth Distance (km) Brightness Sun altitude
Rises 23:46:03 0° 292° (WNW) 2,347 0.8 -16.8°
Reaches altitude 10° 23:48:10 10° 296° (WNW) 1,482 -0.3 -16.9°
Maximum altitude 23:51:28 62° 18° (NNE) 468 -3.4 -17.2°
Enters shadow 23:53:06 26° 91° (E) 841 -2.5 -17.3°
